User: anonymous   Login
Location: Unspecified
(0.0000°N, 0.0000°E)
Time: 20:21:27
(UTC+00:00)
Language:

STARLINK-3899 - Orbit

View from above orbital plane
View from above orbital plane
View from above satellite
View from above satellite

Ground track
Ground track

The orbit is defined by the following mean orbital elements,

1 52457U          26145.53201878 +.00000000 +00000-0 +43867-3 0 00009
2 52457  53.2121  84.1503 0001335  95.3414 264.7731 15.08804223    01
Epoch (UTC): 25 May 2026 12:46:06
Eccentricity: 0.0001335
inclination: 53.2121°
perigee height: 539 km
apogee height: 541 km
right ascension of ascending node: 84.1503°
argument of perigee: 95.3414°
revolutions per day: 15.08804223
mean anomaly at epoch: 264.7731°

The dashed part of the orbit path shows where the satellite is in the earth's shadow,  

DLR